Location: Palleja
(41.4200°N, 2.0000°E)
Time: 22:54:15
(UTC+02:00)

Tiangong 1 - Visible Passes

Search period start: 27 June 2017 00:00
Search period end: 07 July 2017 00:00
Orbit: 321 x 344 km, 42.8° (Epoch: 26 June)

Date Brightness Start Highest point End Pass type
(mag) Time Alt. Az. Time Alt. Az. Time Alt. Az.
27 Jun 0.7 23:23:46 10° WNW 23:26:35 81° NNE 23:27:00 59° E visible
28 Jun 1.2 22:07:26 10° W 22:10:14 63° N 22:13:00 10° E visible
28 Jun 1.7 23:43:04 10° W 23:45:05 39° WSW 23:45:05 39° WSW visible
29 Jun 0.8 22:26:41 10° WNW 22:29:30 80° N 22:31:59 12° E visible
30 Jun 3.4 00:02:29 10° W 00:03:07 14° W 00:03:07 14° W visible
30 Jun 0.9 22:45:52 10° W 22:48:39 59° SSW 22:49:59 26° SE visible
01 Jul 2.0 23:05:11 10° W 23:07:38 27° SSW 23:07:56 27° SSW visible
02 Jul 3.4 23:25:11 10° WSW 23:25:53 12° SW 23:25:53 12° SW visible
03 Jul 2.1 22:07:42 10° W 22:10:12 28° SSW 22:12:40 10° SE visible
04 Jul 3.3 22:27:32 10° WSW 22:28:56 13° SW 22:30:18 10° S visible
